Wind_Speed
2 2 2 1 1 1 1 2 2 2 3 2 2 3 3 3 4 4 5 5 5 5 4 4 4 4 3 2 1 0 1 1 2 2 3 3 3 3 3 4 3 3 4
1 1 2 2 1 2 3 3 2 1 1 1 2 2 2 3 3 4 4 4 4 4 3 3 3 3 3 2 2 1 1 1 2 2 3 3 4 3 4 4 4 4 4
1 1 0 1 1 1 2 2 2 1 1 1 1 2 2 2 3 3 3 4 4 3 3 2 2 2 3 2 2 2 1 1 2 3 3 4 4 4 4 5 5 5 5
2 1 0 0 0 0 1 2 2 1 1 1 2 2 2 2 3 2 3 3 3 3 3 2 2 2 3 3 3 3 2 3 3 3 4 4 5 5 5 6 6 7 7
3 2 1 0 1 1 1 1 1 1 2 2 2 2 2 2 3 2 2 3 3 3 3 2 2 2 3 2 3 3 3 3 4 4 4 5 5 6 6 6 6 7 8
3 2 1 1 1 2 1 1 1 2 2 2 3 2 2 2 3 3 2 3 4 4 4 4 3 3 3 3 4 3 4 4 4 4 4 5 6 6 6 7 7 8 8
3 2 2 2 2 2 2 2 2 3 3 3 3 3 3 3 3 3 4 4 4 4 4 5 4 4 4 4 5 5 5 5 5 5 5 6 6 7 7 7 8 8 9
3 2 2 2 3 3 3 3 4 4 4 5 4 4 4 5 5 5 5 5 5 5 5 5 5 6 6 6 6 6 6 6 7 7 7 7 7 8 8 9 9 10 10
3 3 3 3 4 4 5 5 5 5 5 6 6 5 6 6 6 6 6 6 6 7 7 7 7 7 8 8 8 8 8 8 8 8 8 8 9 9 10 10 10 11 11
4 4 4 4 5 5 6 6 6 7 7 7 7 8 8 8 8 8 8 8 8 8 9 9 9 9 9 10 10 10 10 10 9 10 10 10 10 10 10 11 11 12 12
6 6 6 6 6 6 7 7 8 8 9 9 9 9 9 9 9 9 9 9 9 9 10 10 10 11 11 11 11 11 11 10 11 12 12 12 11 11 11 12 12 13 14
7 7 7 7 7 7 7 8 9 9 10 10 10 10 10 10 10 10 10 10 10 10 10 11 11 12 12 12 12 12 12 13 13 13 13 13 13 13 13 14 14 14 15
8 8 8 7 8 7 8 8 9 9 10 10 10 11 10 11 11 11 11 11 11 12 12 12 12 13 12 13 13 13 14 13 14 14 14 15 15 16 16 16 17 17 17
8 7 7 7 8 8 9 9 9 9 10 10 11 11 11 11 11 11 11 12 12 13 13 14 14 14 14 14 14 14 14 15 15 15 16 16 17 17 17 18 18 19 19
8 8 8 8 8 8 9 10 10 10 10 11 11 11 12 12 13 13 14 14 14 15 16 16 16 15 15 16 16 16 16 16 17 17 17 17 18 18 19 20 20 21 21
9 9 9 9 9 10 10 11 11 12 12 12 12 13 13 13 14 15 15 16 16 17 17 18 17 17 17 17 17 17 17 18 19 19 20 20 20 21 21 22 23 23 24
10 10 10 10 10 11 11 11 12 12 13 13 13 14 15 15 15 16 17 17 17 17 17 18 19 19 19 19 19 19 20 20 20 21 21 21 22 23 23 24 25 25 26
11 10 10 10 11 11 11 12 13 13 14 14 15 15 15 16 16 16 16 17 17 17 17 17 19 20 20 21 21 21 21 21 21 21 22 23 25 26 26 27 27 28 28
11 11 10 11 11 12 13 13 13 14 15 15 16 16 16 16 16 17 17 17 17 17 18 18 18 19 20 21 21 21 22 22 23 23 24 25 26 27 28 29 30 30 31
11 11 11 11 12 12 13 14 14 14 15 15 16 16 16 16 17 17 17 17 17 18 19 19 19 20 20 20 21 21 22 23 24 24 25 26 27 28 29 30 31 31 32
12 12 12 12 13 14 14 14 15 15 15 15 16 17 17 17 17 17 17 17 18 18 19 19 20 20 20 21 22 22 23 24 25 26 26 27 28 29 31 31 32 32 33
14 13 13 13 14 15 15 15 15 15 16 16 17 17 17 17 17 18 18 18 19 19 19 20 20 21 22 23 24 24 25 26 27 28 28 29 30 31 32 33 33 33 34
14 14 14 15 16 16 16 17 16 16 17 18 18 18 18 18 18 18 18 19 20 20 21 22 22 23 24 24 25 26 26 27 27 29 29 30 31 31 32 33 33 34 36
16 16 17 17 17 17 18 18 17 18 18 18 18 19 19 20 19 19 20 22 23 23 23 23 23 24 25 26 27 27 28 29 29 30 30 31 32 33 34 34 34 35 36
17 17 18 18 17 17 18 18 18 18 19 19 20 20 21 22 22 22 23 23 24 24 24 25 25 26 26 27 28 29 29 30 30 31 31 32 32 33 33 34 35 36 37
19 19 19 19 18 19 19 19 19 20 20 20 21 21 21 22 23 24 24 25 25 25 26 26 26 27 28 28 29 30 31 31 31 32 32 33 33 34 34 35 37 38 39
Wind_Direction
60 58 61 67 73 65 60 47 39 51 61 53 49 55 43 35 39 37 36 35 38 44 47 49 52 56 60 63 53 46 246 231 222 214 203 197 203 207 200 205 209 205 204
72 79 60 59 58 50 49 50 40 43 71 55 37 37 36 32 28 23 25 29 32 32 32 39 46 42 40 34 23 356 293 243 236 230 225 224 217 219 217 220 222 223 224
42 67 105 88 64 47 41 30 31 33 39 29 15 20 10 7 6 6 11 20 25 25 24 21 17 11 11 8 354 343 308 262 259 250 244 240 233 227 223 225 230 233 234
24 20 170 190 156 14 32 21 33 38 17 359 350 358 359 352 353 356 357 5 6 4 6 1 346 343 342 342 330 316 303 283 270 268 260 244 232 230 233 236 238 239 240
40 25 5 328 299 296 309 346 5 350 348 344 341 338 341 339 340 349 351 345 348 348 339 334 332 330 327 315 318 304 288 285 280 276 266 252 241 242 246 245 245 243 245
24 10 0 338 314 307 293 305 302 310 309 319 320 316 319 314 312 327 327 319 323 333 331 321 314 316 310 298 296 293 282 281 281 276 272 263 250 247 248 251 251 251 251
10 1 357 328 312 313 304 288 292 301 301 299 306 305 301 300 303 306 308 306 308 314 319 319 309 300 298 297 289 285 283 280 273 272 271 267 256 252 253 255 255 255 256
356 348 329 305 292 293 292 291 290 293 289 292 295 296 293 290 292 296 298 299 298 301 306 304 298 294 291 288 287 283 281 279 275 276 274 271 265 260 258 258 258 259 261
330 315 317 301 286 279 279 284 289 289 287 285 284 283 284 285 286 290 290 290 292 294 296 294 288 288 286 282 281 284 282 277 275 277 276 270 267 263 261 261 261 261 262
328 313 296 296 291 282 277 281 288 285 283 280 282 283 279 278 278 284 284 282 284 288 293 293 289 284 286 283 280 281 285 281 277 279 275 270 270 266 262 262 263 262 261
327 319 301 287 284 281 282 285 287 286 283 281 280 281 276 274 274 277 281 279 282 283 288 290 288 284 286 286 284 278 280 279 278 279 275 271 271 267 265 267 267 265 265
330 325 312 295 282 281 281 285 287 287 287 284 281 280 275 271 271 274 278 283 286 287 287 287 289 288 286 285 284 281 276 275 278 280 275 270 272 273 268 268 270 270 269
317 318 314 302 288 283 279 285 288 289 289 289 286 283 280 274 272 275 278 281 283 286 289 292 291 288 284 283 282 283 279 280 281 282 277 273 273 274 273 271 269 270 271
309 307 309 304 295 285 281 284 288 289 289 287 287 285 282 279 279 278 281 284 285 285 285 287 291 290 286 285 285 285 283 281 282 281 280 278 276 274 275 273 273 273 273
307 303 304 302 298 294 287 284 286 290 291 289 288 286 285 281 278 278 281 283 284 285 285 286 286 286 287 287 286 285 284 283 280 280 280 280 278 275 275 274 274 274 275
304 299 300 300 299 296 291 289 287 288 289 290 287 285 285 284 283 282 283 284 285 283 282 284 285 283 285 288 286 285 284 283 280 278 278 276 275 275 276 276 274 275 275
302 296 296 294 293 292 289 288 288 290 292 289 286 286 285 284 284 285 287 289 288 285 282 281 283 284 285 286 286 286 285 285 281 277 277 277 276 276 276 277 277 278 277
296 296 297 292 292 291 290 288 287 288 291 290 291 291 290 286 284 286 289 290 288 287 286 285 286 286 285 284 286 284 283 284 284 282 279 279 278 277 277 277 277 278 278
293 292 294 293 292 291 289 287 290 291 292 293 294 294 293 290 285 286 288 287 286 286 287 287 288 290 288 288 288 285 283 284 284 283 282 281 280 280 279 278 279 279 278
298 296 296 296 293 292 292 290 290 292 293 295 295 295 292 289 285 287 289 288 288 287 288 288 288 290 290 288 289 287 284 284 284 283 282 282 281 281 281 281 281 280 279
300 297 295 295 295 293 294 292 291 291 293 295 296 296 294 292 288 288 292 293 293 291 290 289 290 291 290 289 289 289 287 285 284 283 283 282 282 283 282 281 282 282 282
297 294 292 291 293 292 291 291 291 290 291 293 296 298 296 295 292 291 292 294 296 296 296 294 292 292 290 289 289 289 289 287 285 284 284 284 284 285 284 282 282 283 282
291 291 292 289 288 288 289 291 289 291 291 291 294 296 296 294 292 291 292 293 295 296 295 294 292 292 292 291 290 291 290 289 287 286 286 286 286 285 285 284 284 284 284
289 287 289 290 288 287 286 288 292 294 293 292 293 293 292 292 292 291 292 293 293 294 295 294 292 292 292 291 291 291 291 289 288 287 287 288 287 286 285 285 285 286 286
291 289 288 289 289 289 288 287 288 290 291 291 292 292 291 292 291 293 293 293 292 293 294 294 293 292 293 292 292 291 290 289 289 289 289 289 289 288 286 286 286 286 287
289 289 287 287 287 289 288 287 288 288 289 291 294 294 294 293 294 294 294 293 291 292 293 293 293 293 293 293 293 293 292 291 291 291 290 290 290 289 287 287 287 287 288
Height
5904 5904 5903 5903 5903 5903 5903 5903 5902 5902 5901 5901 5901 5900 5900 5899 5898 5898 5897 5896 5895 5894 5893 5892 5891 5891 5890 5890 5890 5889 5889 5889 5889 5888 5888 5888 5889 5889 5889 5889 5890 5890 5890
5904 5904 5904 5903 5903 5903 5903 5903 5903 5902 5902 5902 5901 5901 5900 5900 5899 5898 5897 5896 5895 5894 5894 5893 5892 5891 5891 5890 5890 5889 5889 5888 5888 5888 5888 5888 5888 5888 5889 5889 5889 5889 5890
5904 5904 5903 5904 5903 5903 5903 5903 5903 5903 5902 5902 5901 5901 5900 5900 5899 5898 5897 5897 5896 5895 5894 5893 5892 5892 5891 5890 5890 5889 5888 5888 5888 5888 5887 5887 5887 5887 5888 5888 5888 5889 5889
5903 5903 5903 5903 5903 5903 5903 5903 5903 5903 5902 5902 5901 5901 5900 5900 5899 5898 5897 5897 5896 5895 5894 5893 5892 5892 5891 5890 5889 5889 5888 5888 5888 5887 5887 5887 5887 5887 5887 5887 5887 5887 5888
5903 5903 5903 5903 5903 5903 5903 5903 5903 5903 5902 5902 5901 5901 5900 5900 5899 5898 5897 5896 5895 5894 5894 5893 5892 5892 5891 5890 5889 5888 5888 5887 5887 5886 5886 5886 5886 5886 5886 5886 5886 5886 5886
5903 5903 5903 5903 5903 5902 5902 5902 5902 5902 5902 5902 5901 5900 5900 5899 5898 5898 5897 5896 5895 5894 5893 5893 5892 5891 5891 5890 5889 5888 5887 5886 5886 5885 5885 5885 5884 5884 5884 5884 5884 5884 5884
5903 5903 5903 5902 5902 5902 5902 5902 5902 5901 5901 5900 5900 5900 5899 5899 5898 5897 5896 5896 5895 5894 5893 5892 5891 5890 5890 5889 5888 5887 5886 5885 5885 5884 5883 5883 5883 5883 5883 5882 5882 5882 5882
5903 5902 5902 5902 5902 5901 5901 5901 5901 5900 5900 5899 5899 5899 5898 5898 5897 5897 5896 5895 5894 5893 5892 5891 5890 5889 5889 5888 5887 5886 5885 5884 5884 5883 5882 5881 5881 5881 5881 5880 5880 5880 5880
5902 5901 5901 5901 5900 5900 5900 5900 5900 5899 5899 5898 5898 5898 5897 5897 5896 5896 5895 5894 5893 5892 5891 5890 5889 5888 5887 5886 5885 5884 5883 5882 5882 5881 5880 5879 5879 5878 5878 5878 5877 5877 5877
5901 5900 5900 5900 5899 5899 5898 5898 5898 5898 5897 5897 5897 5896 5896 5895 5895 5894 5893 5892 5891 5890 5889 5888 5887 5886 5885 5884 5883 5882 5881 5880 5879 5878 5878 5877 5876 5876 5876 5875 5875 5874 5874
5900 5899 5898 5898 5898 5897 5897 5896 5896 5896 5895 5895 5894 5894 5893 5893 5892 5892 5891 5890 5889 5888 5887 5886 5885 5884 5883 5882 5881 5880 5879 5878 5877 5876 5875 5874 5873 5873 5873 5872 5872 5871 5871
5899 5898 5897 5896 5896 5895 5895 5894 5894 5893 5893 5892 5892 5891 5890 5890 5890 5890 5889 5888 5887 5886 5885 5884 5883 5881 5880 5879 5878 5877 5876 5875 5874 5873 5872 5872 5871 5870 5869 5869 5868 5868 5867
5897 5896 5895 5894 5894 5893 5893 5892 5892 5891 5890 5890 5889 5889 5888 5887 5887 5887 5886 5886 5885 5884 5882 5881 5880 5878 5877 5876 5875 5874 5873 5871 5871 5870 5869 5868 5868 5867 5866 5865 5864 5864 5863
5895 5894 5893 5892 5892 5891 5890 5890 5889 5888 5888 5887 5886 5886 5885 5885 5884 5884 5883 5883 5882 5881 5880 5879 5877 5875 5874 5873 5872 5871 5869 5868 5867 5866 5865 5865 5864 5863 5862 5861 5860 5859 5858
5893 5893 5891 5890 5889 5889 5888 5887 5887 5886 5885 5884 5884 5883 5882 5882 5881 5881 5880 5879 5879 5877 5876 5875 5873 5872 5870 5869 5868 5867 5866 5865 5863 5862 5861 5860 5859 5858 5857 5856 5855 5854 5853
5891 5890 5889 5888 5887 5886 5885 5885 5884 5883 5882 5881 5881 5880 5879 5878 5877 5877 5876 5875 5874 5873 5872 5870 5869 5868 5866 5865 5863 5862 5861 5860 5858 5857 5856 5855 5854 5852 5851 5850 5849 5848 5847
5889 5888 5887 5885 5884 5883 5882 5882 5881 5880 5879 5878 5877 5876 5875 5874 5874 5873 5872 5871 5869 5868 5867 5865 5864 5863 5861 5860 5859 5857 5856 5854 5853 5852 5850 5849 5848 5846 5845 5844 5843 5841 5840
5886 5885 5884 5883 5882 5881 5880 5879 5878 5877 5876 5875 5873 5872 5871 5870 5869 5869 5867 5866 5864 5863 5862 5861 5859 5858 5856 5855 5853 5852 5850 5849 5847 5846 5844 5843 5842 5840 5839 5837 5835 5834 5832
5883 5882 5881 5880 5879 5878 5877 5876 5875 5873 5872 5871 5869 5868 5867 5866 5865 5864 5862 5861 5860 5858 5857 5856 5854 5852 5851 5849 5847 5846 5845 5843 5841 5840 5838 5836 5835 5833 5831 5830 5828 5826 5824
5879 5878 5878 5876 5875 5874 5873 5872 5871 5870 5868 5867 5865 5864 5863 5861 5860 5859 5857 5856 5855 5853 5852 5850 5849 5847 5846 5844 5842 5840 5838 5836 5835 5833 5831 5829 5827 5825 5823 5822 5820 5817 5816
5876 5875 5874 5873 5872 5870 5869 5868 5867 5866 5864 5863 5862 5860 5858 5856 5855 5854 5852 5851 5850 5848 5846 5845 5843 5842 5840 5838 5836 5834 5832 5830 5828 5826 5824 5822 5819 5817 5815 5813 5811 5809 5806
5873 5871 5870 5869 5868 5867 5866 5864 5863 5862 5860 5859 5857 5856 5854 5852 5850 5849 5848 5846 5845 5843 5841 5839 5837 5835 5834 5832 5830 5827 5825 5823 5820 5818 5816 5814 5811 5809 5806 5804 5802 5799 5797
5869 5867 5866 5865 5864 5863 5861 5860 5858 5857 5856 5855 5853 5851 5849 5848 5846 5844 5842 5841 5839 5837 5835 5833 5831 5829 5827 5825 5823 5820 5817 5815 5813 5810 5807 5805 5803 5800 5797 5794 5792 5789 5787
5864 5863 5862 5860 5859 5858 5856 5855 5854 5852 5851 5850 5848 5846 5844 5842 5840 5839 5837 5835 5833 5831 5829 5827 5825 5822 5820 5817 5815 5812 5809 5807 5804 5802 5799 5797 5793 5790 5788 5785 5782 5779 5776
5859 5858 5857 5855 5854 5853 5851 5850 5849 5847 5846 5844 5843 5841 5839 5837 5835 5833 5831 5828 5826 5824 5822 5819 5817 5815 5812 5810 5807 5804 5801 5798 5795 5793 5790 5787 5784 5781 5777 5775 5771 5768 5765
5854 5853 5851 5850 5849 5847 5846 5845 5843 5842 5840 5839 5837 5835 5833 5831 5829 5826 5824 5822 5819 5817 5815 5812 5810 5807 5804 5801 5798 5795 5792 5789 5786 5783 5780 5777 5774 5770 5767 5764 5761 5757 5754